Wind_Speed
48 49 49 50 51 51 52 52 52 52 53 54 54 53 53 53 52 52 51 52 51 51 51 50 50 49 49 49 49 48 48 49 48 47 47 47 47 47 47 46 46 46 45
47 47 47 47 49 50 50 51 52 53 53 53 54 54 54 54 54 53 53 52 51 50 51 50 49 49 49 49 49 49 48 48 48 46 46 47 46 46 47 48 47 47 46
46 45 46 46 47 49 50 51 52 52 53 53 53 54 54 54 54 53 52 51 51 50 50 49 49 49 49 50 50 49 49 49 48 48 47 47 47 47 47 47 48 48 47
43 44 44 44 46 47 49 50 51 52 52 52 52 52 52 53 53 51 50 49 49 50 50 49 49 49 50 50 51 50 50 49 49 49 49 48 48 47 47 47 48 49 49
42 41 42 43 44 46 47 47 48 49 50 50 50 50 50 50 50 50 49 49 48 48 49 49 48 48 49 50 50 50 50 50 50 49 49 49 48 48 48 48 49 49 49
39 40 40 40 41 42 43 44 45 46 47 47 48 48 49 49 49 49 49 49 49 49 49 48 48 48 49 50 49 49 49 50 49 49 49 48 49 49 49 49 49 49 49
37 37 37 38 38 39 40 41 42 43 43 44 44 44 45 47 48 48 48 48 48 48 49 48 47 47 48 48 49 48 48 48 48 48 49 48 48 48 48 48 48 49 49
35 36 36 36 37 37 38 39 40 40 41 41 41 42 43 44 45 46 48 47 46 47 47 47 46 46 46 47 46 47 47 48 48 48 48 47 47 47 47 47 47 47 47
33 35 35 35 36 37 38 38 39 39 39 39 40 41 42 42 44 46 46 46 46 45 45 46 46 46 46 46 46 46 46 46 47 47 46 45 45 46 46 46 45 46 47
32 33 33 34 34 34 35 36 36 37 38 38 39 39 40 41 41 43 44 43 44 44 44 45 45 45 46 46 46 46 45 45 45 45 45 44 44 44 44 45 46 46 45
29 30 31 32 32 33 34 35 36 37 38 38 38 38 39 40 40 40 41 42 42 43 43 44 45 45 45 46 46 46 45 44 44 44 43 43 43 42 42 43 43 43 43
27 27 28 30 31 32 33 34 35 36 36 36 37 37 37 38 39 39 40 41 42 42 42 43 44 44 44 44 44 44 44 44 43 42 42 42 40 40 40 41 41 41 40
27 27 28 28 29 29 30 31 32 33 34 34 36 36 36 37 38 38 39 40 41 41 41 42 42 42 43 42 42 41 41 41 42 41 40 39 39 38 38 38 38 37 36
26 26 26 26 26 27 28 29 29 30 31 32 33 35 35 36 36 37 37 38 39 39 39 39 40 40 40 40 39 39 39 39 39 38 37 36 35 35 35 35 35 34 33
24 25 24 24 25 26 27 28 28 29 29 31 32 34 34 34 35 35 36 36 36 37 37 36 37 37 37 37 37 36 36 35 34 33 33 33 33 33 31 31 31 30 30
24 24 25 25 25 26 26 27 27 27 28 29 30 31 31 32 32 33 33 33 33 33 34 34 34 34 34 34 34 33 32 31 31 31 31 31 30 29 29 28 28 28 28
24 24 24 25 25 25 25 25 26 27 28 28 28 28 28 29 29 28 29 29 30 31 31 31 32 32 32 31 30 30 29 29 29 30 29 28 27 26 26 26 26 26 27
22 23 23 24 24 24 24 24 24 25 26 25 25 26 26 25 25 25 25 26 27 28 28 29 29 29 29 29 28 28 28 28 28 27 26 25 24 24 23 24 24 25 24
21 22 22 23 23 23 22 22 22 22 23 23 23 23 23 22 22 23 23 24 24 24 24 25 25 26 26 26 27 27 27 27 26 25 24 24 23 22 23 23 24 24 24
21 21 21 21 21 21 21 21 22 21 21 22 22 22 22 21 21 21 21 21 21 21 22 22 22 22 23 23 24 25 25 24 24 23 23 23 23 23 23 23 23 24 24
19 19 19 19 20 21 21 22 22 21 21 22 21 21 21 20 20 19 19 19 20 19 19 19 19 19 20 20 21 21 22 22 22 22 21 22 22 21 21 21 21 22 23
19 19 19 20 20 20 21 21 21 21 20 21 21 21 20 20 19 19 18 18 19 19 19 18 18 18 18 19 19 20 20 20 20 20 20 20 20 21 21 20 20 21 21
19 19 20 20 20 20 20 20 20 19 19 19 19 19 19 19 18 18 17 17 17 18 18 18 18 18 18 18 19 19 19 19 19 19 19 19 19 19 19 18 19 20 20
19 19 19 19 19 19 19 18 18 17 16 16 16 17 17 17 17 16 17 17 17 17 18 18 19 19 19 19 19 20 19 19 19 19 19 19 18 17 16 16 16 16 17
18 18 17 17 17 17 17 16 16 15 15 15 15 15 15 15 15 16 16 16 16 16 17 18 18 19 18 19 19 19 19 19 19 18 18 17 16 15 15 15 15 15 15
17 17 16 16 15 16 16 16 15 15 15 15 15 14 14 15 15 15 15 15 16 16 17 17 17 17 17 17 17 17 18 17 17 17 16 16 15 15 15 15 15 14 14
Wind_Direction
258 258 257 256 255 254 253 252 251 251 252 252 252 253 253 254 255 256 257 257 259 259 259 259 258 258 260 262 264 266 268 268 269 269 271 272 274 275 274 273 273 273 275
258 258 258 257 255 254 253 252 251 251 251 252 253 253 253 254 255 256 257 258 258 258 258 258 257 258 259 262 264 266 267 269 269 269 270 272 274 275 275 274 273 273 275
258 259 259 259 257 254 253 253 252 252 252 253 253 253 253 254 255 256 257 257 257 258 258 259 258 260 261 263 264 265 267 268 269 269 270 272 274 274 275 274 273 274 274
258 259 259 259 257 255 253 253 253 253 253 253 253 254 254 255 256 256 256 256 257 258 258 259 259 260 262 263 265 266 266 267 268 269 270 272 273 274 275 275 274 274 274
258 259 259 260 258 256 254 253 253 254 254 253 254 254 254 255 256 256 256 257 258 258 259 259 260 261 261 263 265 266 267 267 268 269 271 273 273 274 275 275 275 275 275
259 260 261 261 259 256 254 253 253 253 253 254 255 256 255 255 256 256 256 257 258 259 259 257 259 261 263 264 265 267 267 268 269 270 271 272 273 273 274 275 275 276 276
261 262 263 262 260 258 256 253 253 254 255 255 256 257 257 257 257 257 258 258 259 259 258 258 259 261 263 264 265 266 267 268 269 270 271 273 274 274 275 275 276 277 277
263 263 264 263 260 258 257 254 254 255 256 256 256 258 259 259 258 258 258 258 258 259 258 259 260 262 264 265 266 267 268 268 269 270 271 273 274 275 275 276 277 277 278
265 265 264 263 261 259 257 255 255 256 256 256 256 258 260 262 261 260 259 259 259 259 259 260 262 263 264 265 266 267 268 269 270 270 271 272 273 274 276 276 277 278 279
267 266 264 263 261 261 258 256 257 257 257 257 257 259 260 261 261 260 259 259 259 259 260 262 263 263 264 265 266 267 268 268 269 270 271 271 273 274 274 275 277 278 280
270 268 265 263 263 262 261 258 256 257 257 259 259 259 260 260 260 260 260 261 260 260 261 262 262 263 263 264 266 267 268 268 269 269 270 271 273 273 274 276 277 279 279
272 270 267 265 264 263 261 260 260 260 260 261 259 259 260 261 261 261 263 263 262 261 261 262 263 262 263 264 265 267 267 268 268 269 270 271 271 272 274 275 277 277 278
274 273 270 268 266 265 263 263 263 262 262 261 260 260 261 261 262 263 264 264 263 261 261 262 262 262 263 264 265 265 266 267 267 267 268 269 269 271 273 274 274 275 276
275 274 270 269 267 265 265 264 264 263 262 262 261 261 261 262 263 264 264 263 261 260 262 263 262 261 262 264 264 263 264 266 265 265 267 267 268 270 271 272 272 272 274
276 275 272 269 267 268 267 267 265 264 264 262 262 262 262 262 262 263 262 262 261 260 260 262 261 260 261 263 262 262 262 263 263 264 265 267 268 269 269 270 271 270 271
277 275 273 269 268 269 268 265 264 265 265 265 264 262 262 262 262 261 261 261 260 260 260 260 259 259 260 261 261 260 260 261 262 263 264 266 267 267 268 268 269 269 271
276 275 272 269 268 269 265 262 263 264 266 265 262 263 263 262 261 261 262 261 261 260 259 259 258 257 258 259 258 258 258 260 262 263 264 266 266 267 268 267 266 268 271
280 277 275 272 270 269 266 265 265 264 265 265 264 264 264 262 262 262 262 261 261 261 259 258 257 256 256 254 254 256 256 258 260 263 264 265 266 266 268 270 270 270 272
282 279 276 273 269 267 266 266 266 268 267 264 264 264 264 264 265 263 262 261 262 260 258 257 256 255 253 252 252 253 254 257 260 263 263 264 265 267 270 272 271 272 274
282 279 277 274 270 269 267 267 269 270 269 265 264 264 265 266 264 263 261 260 259 256 255 256 255 253 250 250 251 252 254 256 259 260 261 262 265 268 270 272 273 275 276
284 281 280 277 275 272 271 271 271 271 269 267 265 263 262 261 262 262 260 256 254 253 254 254 252 249 248 250 252 254 256 257 259 261 262 263 264 267 270 272 274 276 277
287 285 281 280 277 275 274 273 272 271 269 267 263 261 261 261 259 258 256 254 252 253 253 252 250 250 252 254 256 258 259 260 262 264 265 266 267 267 268 270 272 273 276
287 286 284 281 277 276 275 274 272 270 269 266 262 260 260 258 255 255 253 251 251 251 252 250 248 251 254 257 260 260 261 263 264 264 266 267 266 267 269 271 271 272 273
288 287 285 282 279 276 274 272 270 267 265 263 259 257 256 256 254 253 252 251 251 252 251 250 251 253 256 258 260 260 260 261 262 263 264 265 265 265 267 270 272 274 274
289 288 287 284 280 274 271 269 267 264 261 259 255 253 253 252 253 254 254 253 253 253 252 251 252 255 257 259 259 258 258 260 261 262 262 262 260 260 264 269 271 273 274
288 287 288 285 280 275 271 268 266 264 261 258 256 256 256 256 256 255 253 253 253 252 252 251 253 255 256 257 258 258 258 258 258 259 258 257 258 260 263 266 268 272 275
Height
5592 5593 5595 5597 5599 5601 5605 5608 5612 5616 5620 5623 5627 5630 5633 5636 5639 5642 5643 5645 5647 5649 5650 5652 5654 5656 5658 5659 5660 5661 5662 5663 5665 5667 5666 5666 5665 5665 5664 5664 5664 5664 5664
5579 5580 5582 5583 5585 5588 5592 5595 5599 5603 5606 5610 5614 5617 5621 5623 5626 5629 5631 5633 5634 5636 5637 5639 5641 5643 5645 5647 5648 5649 5650 5651 5652 5654 5654 5653 5653 5652 5652 5652 5651 5652 5652
5567 5568 5570 5571 5572 5575 5579 5582 5585 5589 5593 5596 5600 5604 5607 5610 5612 5615 5617 5619 5621 5623 5625 5627 5629 5630 5632 5634 5635 5636 5637 5637 5639 5640 5641 5641 5641 5640 5640 5639 5639 5639 5639
5555 5556 5558 5559 5560 5562 5565 5569 5572 5576 5580 5583 5587 5590 5593 5596 5599 5602 5604 5606 5608 5610 5613 5614 5616 5618 5620 5621 5622 5623 5624 5624 5625 5626 5628 5628 5628 5628 5627 5626 5626 5626 5626
5544 5545 5546 5547 5548 5550 5553 5556 5559 5563 5567 5570 5574 5577 5580 5583 5586 5588 5591 5593 5595 5597 5600 5602 5604 5605 5607 5608 5609 5610 5611 5611 5612 5613 5614 5615 5615 5615 5614 5613 5613 5613 5613
5532 5534 5535 5535 5536 5538 5540 5544 5547 5550 5554 5558 5561 5564 5567 5570 5573 5575 5578 5580 5583 5585 5587 5589 5591 5593 5594 5595 5596 5597 5598 5598 5600 5600 5601 5601 5602 5602 5601 5600 5599 5600 5600
5522 5523 5524 5524 5526 5527 5529 5532 5536 5539 5542 5546 5549 5552 5554 5557 5559 5562 5565 5567 5570 5572 5574 5576 5579 5580 5581 5582 5583 5584 5585 5586 5586 5587 5587 5588 5588 5588 5588 5587 5586 5585 5586
5512 5513 5514 5514 5516 5517 5519 5522 5525 5528 5532 5535 5538 5541 5543 5545 5547 5549 5552 5554 5557 5560 5562 5564 5566 5568 5569 5570 5570 5572 5573 5573 5574 5574 5574 5575 5574 5573 5573 5573 5573 5572 5572
5503 5504 5504 5505 5506 5508 5510 5513 5516 5519 5522 5525 5528 5530 5532 5534 5535 5537 5539 5542 5545 5547 5549 5551 5553 5555 5556 5557 5558 5559 5561 5561 5561 5560 5561 5560 5560 5560 5560 5560 5560 5559 5559
5495 5495 5495 5496 5497 5499 5501 5503 5506 5509 5512 5515 5517 5519 5521 5523 5524 5525 5527 5530 5533 5536 5538 5539 5541 5542 5543 5544 5545 5547 5548 5549 5548 5548 5548 5548 5548 5548 5547 5547 5547 5546 5546
5487 5487 5488 5488 5489 5491 5492 5494 5497 5500 5502 5505 5507 5509 5510 5511 5513 5514 5516 5518 5520 5523 5525 5527 5528 5529 5531 5532 5533 5534 5535 5535 5535 5536 5536 5536 5536 5536 5536 5536 5535 5534 5534
5481 5481 5481 5481 5482 5483 5484 5486 5488 5490 5492 5494 5496 5498 5499 5500 5502 5503 5505 5506 5508 5510 5513 5515 5516 5517 5518 5519 5520 5521 5522 5522 5523 5524 5524 5524 5525 5525 5524 5524 5523 5523 5522
5475 5474 5474 5474 5474 5475 5476 5477 5479 5480 5482 5484 5486 5487 5489 5490 5491 5492 5493 5495 5496 5498 5500 5502 5503 5504 5506 5507 5508 5509 5509 5510 5511 5512 5513 5513 5513 5513 5513 5513 5512 5512 5512
5468 5467 5467 5467 5467 5468 5469 5470 5471 5471 5473 5474 5475 5477 5478 5479 5480 5481 5482 5483 5484 5486 5488 5489 5491 5492 5494 5495 5496 5497 5498 5499 5500 5501 5502 5502 5502 5502 5502 5503 5503 5503 5503
5462 5461 5460 5460 5461 5461 5462 5462 5463 5463 5464 5466 5466 5467 5468 5470 5470 5470 5471 5472 5473 5475 5476 5478 5479 5481 5483 5484 5485 5486 5488 5489 5490 5491 5491 5492 5492 5492 5492 5493 5493 5493 5494
5455 5455 5454 5454 5453 5453 5454 5454 5454 5455 5456 5456 5456 5457 5458 5459 5459 5460 5460 5461 5462 5464 5465 5467 5469 5471 5473 5474 5475 5477 5478 5480 5481 5481 5482 5482 5483 5483 5483 5484 5484 5485 5486
5449 5448 5447 5447 5446 5446 5447 5447 5448 5448 5447 5447 5447 5448 5449 5449 5450 5450 5451 5452 5453 5454 5455 5458 5460 5462 5464 5465 5467 5468 5470 5471 5472 5473 5473 5474 5474 5475 5476 5476 5477 5477 5478
5442 5442 5441 5440 5440 5440 5440 5440 5440 5440 5441 5440 5440 5440 5440 5441 5442 5442 5443 5444 5445 5446 5447 5449 5451 5453 5455 5457 5459 5461 5462 5463 5464 5465 5465 5466 5467 5468 5469 5469 5470 5470 5471
5437 5436 5435 5434 5433 5433 5433 5433 5433 5433 5433 5433 5433 5433 5434 5434 5435 5435 5435 5437 5438 5439 5440 5442 5444 5446 5447 5449 5451 5453 5454 5455 5456 5457 5458 5459 5460 5461 5462 5462 5463 5464 5464
5430 5429 5428 5428 5427 5426 5426 5426 5426 5426 5426 5426 5426 5427 5427 5428 5428 5429 5429 5430 5432 5433 5434 5436 5438 5439 5441 5442 5444 5445 5447 5448 5449 5450 5451 5452 5453 5454 5455 5456 5456 5457 5457
5424 5423 5422 5422 5421 5421 5420 5420 5419 5419 5419 5419 5420 5420 5421 5422 5423 5423 5424 5425 5426 5428 5429 5431 5432 5433 5435 5436 5438 5439 5440 5441 5442 5444 5445 5446 5447 5448 5448 5449 5450 5450 5451
5419 5417 5417 5416 5415 5414 5414 5413 5413 5413 5413 5413 5413 5413 5414 5415 5416 5417 5418 5420 5421 5423 5424 5425 5427 5428 5429 5431 5432 5433 5434 5435 5437 5438 5439 5440 5441 5441 5442 5443 5443 5444 5444
5413 5411 5410 5409 5408 5408 5407 5407 5406 5406 5406 5406 5407 5407 5408 5410 5411 5412 5413 5415 5416 5417 5419 5420 5421 5423 5424 5425 5426 5428 5429 5430 5431 5432 5433 5434 5435 5435 5436 5437 5437 5438 5438
5407 5405 5404 5403 5402 5402 5401 5401 5400 5400 5401 5401 5401 5402 5403 5405 5406 5407 5408 5410 5411 5412 5413 5415 5416 5417 5419 5420 5421 5422 5423 5424 5425 5426 5427 5428 5429 5430 5431 5431 5432 5432 5432
5401 5399 5398 5398 5397 5396 5396 5396 5396 5396 5396 5397 5397 5398 5399 5400 5401 5403 5404 5405 5406 5407 5408 5410 5411 5412 5413 5414 5415 5416 5418 5419 5420 5421 5421 5422 5424 5425 5426 5427 5427 5427 5427
5395 5394 5393 5392 5391 5391 5391 5391 5391 5391 5392 5392 5393 5394 5395 5396 5397 5398 5399 5400 5401 5402 5403 5404 5406 5407 5408 5409 5410 5411 5412 5413 5414 5415 5416 5417 5419 5420 5421 5422 5423 5423 5423